Location: East Horndon
(51.5667°N, 0.3500°E)
Time: 05:52:19
(UTC+00:00)

IRS-1D - Pass Details

Date: 08 November 2025
Orbit: 736 x 811 km, 98.8° (Epoch: 11 December)

Event Time Altitude Azimuth Distance (km) Brightness Sun altitude
Rises 06:11:59 0° 9° (N) 3,223 6.7 -8.5°
Reaches altitude 10° 06:14:30 10° 360° (N) 2,283 5.8 -8.1°
Maximum altitude 06:18:52 31° 299° (WNW) 1,285 4.2 -7.5°
Drops below altitude 10° 06:23:10 10° 238° (WSW) 2,245 5.6 -6.8°
Sets 06:25:38 0° 228° (SW) 3,161 6.4 -6.5°
